Погода в Найджеле

ЮАР     26°25′43″S   28°27′38″E
темп.,
°C
ветер,
м/с
пор.,
м/с
влажн.,
%
обл.,
%
осадки,
мм/ч
давл.,
гПа
погр.,
м
13 апреля, вт
вт1323:00+14ссв33340 0.0 102722
02:00+13всв11390 0.0 102610
05:00+12вюв11410 0.0 102610
08:00+17св11340 0.0 102795
11:00+25с12220 0.0 10241238
14:00+27зюз23205 0.0 10203040
17:00+25зюз232786 0.0 102053
20:00+18юв11315 0.0 102311
14 апреля, ср
ср1423:00+16юв22345 0.0 102312
02:00+14зсз11395 0.0 102311
05:00+14ссз11411 0.0 102311
08:00+18ссв11360 0.0 1023104
11:00+25ююз12260 0.0 10211125
14:00+28ю34175 0.0 10173280
17:00+25ююз332520 0.0 101749
20:00+19юв012847 0.0 101911
15 апреля, чт
чт1523:00+17св233565 0.0 102047
02:00+14с224711 0.0 102019
05:00+13ссв355721 0.0 102057
08:00+18с35476 0.0 1021189
11:00+25зсз33265 0.0 10181593
14:00+28зюз451718 0.0 10143797
17:00+25юз352397 0.0 1014118
20:00+17ююз22280 0.0 101714
16 апреля, пт
пт1623:00+16ю33290 0.0 101832
02:00+14ю22360 0.0 101913
05:00+11вюв24590 0.0 102049
08:00+15в25752 0.0 1022258
11:00+23ю25293 0.0 10191620
14:00+25ююз561919 0.0 10163109
17:00+23ююз5820100 0.0 1017338
20:00+11в7118292 0.0 1025551
17 апреля, сб
сб1723:00+10в61174100 0.0 1026536
02:00+7в51177100 0.0 1028420
05:00+5в4980100 0.0 1029311
08:00+7всв566291 0.0 1030381
11:00+15ссв334381 0.0 1027927
14:00+19сз323675 0.0 10231684
17:00+18з1239100 0.0 102341
20:00+13с1148100 0.0 102514